map of BNE home
BNE - Airport
Location
City:  Brisbane, Queensland, Australia
Name:Brisbane International Airport
ICAO:YBBN
IATA:BNE

Details
Type:Airport (Aerodrome, Airfield)
Use:Public/Civil, International (customs port of entry)
Latitude:2723'03"S (-27.384166)
Longitude:15307'03"E (153.117500)
Datum:WGS 1984
Elevation:13 ft (4 m)
Variation:10.99E (WMM2015 magnetic declination)
0.00 annual change
Runways:2
Longest:11680 × 148 ft (3560 × 45 m), paved

Time
Time Zone:UTC+10
Local Time:

Weather
METAR:YBBN 210530Z 09007KT 9999 FEW045 17/05 Q1020 NOSIG
TAF:YBBN 210507Z 2106/2212 09008KT 9999 FEW045
FM211000 22006KT 9999 FEW035
FM220200 08009KT 9999 FEW045
FM221000 20005KT CAVOK

Related Locations
Nearby:
Farthest:VDE: 11894 mi / 19141 km
Valverde [El Hierro], El Hierro Island, CN, ES

Find:

   beyond  
but within

Other Information
Maps:
NOTAMs:
Links:
Sources:

  
  • flag of Australia
  • flag of Queensland
  • flag of Brisbane
  

Sectional Chart

Flight Planning
at skyvector.com

Satellite Image

Google Maps Satellite view

 

Copyright © 2004-2018 Karl L. Swartz. All rights reserved.
The Great Circle Mapper name and logo are trademarks of the Great Circle Mapper.
All other trademarks mentioned herein belong to their respective owners.
Please see credits for attibutions and further copyright information.

  Follow gcmap on Facebook Follow gcmap on Twitter Follow gcmap on Google+ GCmap on LinkedIn

hCard Microformat

Geo Microformat